CAPE
56 158 652 644 558 498 918 1306 1838 1919 2264 2317 2511 2740 2694 2549 2353 1859 838 1148 1006 1408 988 1100 826 928 1310 1025 1475 1130 755 451 421 808 98 593 414 124 142 408 327 407 376 321 318 532 662 752 583 606 808 796 737 756 835 900 1230 1434 1388 1482 1116 1040 983
143 342 481 541 482 665 1225 1540 1920 1975 2448 2358 2602 2760 2595 2447 2148 1419 980 1196 1068 1307 1026 1211 1136 1219 1396 1167 1295 894 729 698 594 1236 526 517 644 375 233 570 392 230 29 14 514 664 535 482 510 712 593 763 660 716 779 756 906 929 944 1171 738 640 740
70 102 336 622 608 934 1424 1720 2061 2104 2510 2551 2722 2716 2551 2348 1974 1290 1164 1248 1214 1281 1000 1236 1344 1315 1409 1496 1101 698 626 450 679 420 236 70 84 75 432 432 138 170 324 376 314 471 662 708 713 552 496 535 748 744 720 828 652 785 975 1040 880 825 868
181 56 414 703 720 1205 1500 1724 2110 2160 2591 2702 2796 2684 2506 2283 1844 1224 1377 1244 1534 1235 1124 1024 1542 1298 1536 1455 1135 1027 788 500 326 162 160 214 240 181 265 285 134 17 36 266 597 238 217 294 395 497 1318 731 654 757 768 684 684 697 805 910 1046 1225 1188
158 458 581 761 812 1509 1552 1707 2092 2218 2633 2824 2831 2663 2367 2174 1756 1357 1586 1284 1731 1300 1239 1203 1438 1502 1448 1258 1274 1032 709 547 375 198 266 196 298 806 87 74 35 106 210 439 253 549 828 633 453 363 422 654 592 568 649 772 806 840 807 801 804 925 940
411 1032 791 887 992 1641 1613 1832 2075 2366 2703 2818 2839 2664 2351 2076 1660 1685 1698 1538 1708 1598 1184 1460 1398 1656 1260 1209 1204 1033 829 754 332 449 234 230 180 66 40 24 22 124 127 14 172 305 262 154 145 266 385 312 247 266 441 564 702 743 718 782 798 828 988
521 1114 966 1066 1223 1677 1642 1885 2350 2705 2792 2793 2775 2647 2354 2081 1650 1772 1851 1685 1767 1712 1418 1508 1450 1606 1219 1165 1088 962 912 748 522 458 351 354 296 231 228 206 258 49 28 245 222 258 199 132 240 384 421 341 445 503 522 825 880 951 925 885 902 1028 1027
940 1050 1124 1226 1285 1698 1730 1788 2509 3101 3032 2833 2721 2599 2364 2011 1664 1700 1908 1826 1672 1700 1737 1528 1580 1456 1236 1154 1086 1021 730 633 392 361 256 209 234 349 419 369 277 206 164 54 48 339 326 312 358 420 236 336 395 463 740 783 952 1076 998 983 980 951 985
1124 1017 1158 1291 1316 1553 1768 1793 2239 3074 3125 2884 2715 2572 2343 2058 1740 1543 1763 1816 1572 1684 1826 1673 1590 1354 1180 1187 1020 1026 844 786 554 539 446 360 498 567 537 364 167 136 202 256 260 431 359 336 396 336 265 379 380 408 625 879 908 1127 918 936 895 823 880
1022 969 920 1053 1251 1340 1606 1820 1854 2380 2939 2919 2764 2573 2340 1993 1647 1518 1627 1686 1509 1562 1787 1718 1530 1258 1131 1229 1193 989 1035 946 840 641 590 539 535 434 208 157 132 169 154 114 117 123 417 576 470 358 390 369 491 554 658 767 1154 1197 1187 1118 1194 864 802
1179 1042 898 829 831 1048 1382 1758 1786 1871 2224 2514 2530 2396 2171 1914 1650 1384 1638 1535 1343 1345 1580 1574 1425 1183 1167 1112 1210 1220 1062 960 803 600 408 208 158 129 80 66 24 82 17 0 0 0 0 0 186 294 429 481 419 614 650 761 945 1163 1189 1316 1251 1010 740
1700 1440 1382 1080 899 882 1286 1702 1856 1849 1922 2123 2299 2284 2123 1866 1601 1430 1557 1482 1192 1148 1296 1310 1293 1146 1253 1107 992 1022 951 698 585 370 241 160 83 16 4 3 0 0 0 19 0 0 1 0 0 97 168 297 537 473 471 580 985 1006 1005 1383 1217 992 836
2528 2153 2162 1551 1441 1160 1112 1586 1853 1783 1793 1882 1945 2014 1902 1661 1644 1454 1416 1398 1121 936 1042 891 1021 1094 1211 1139 986 889 641 649 560 292 195 224 151 133 98 8 4 40 77 55 68 1 0 0 0 126 224 238 64 128 277 321 478 725 1095 1472 1279 1078 820
3530 2727 2971 2214 1780 1844 1561 1428 1846 1920 1802 1722 1752 1790 1773 1740 1700 1480 1062 1054 933 679 692 597 928 1068 1129 1090 1160 1084 794 568 572 275 166 177 274 190 107 56 106 26 86 202 38 39 19 5 0 1 96 50 70 82 133 110 98 328 1014 1395 1113 729 404
3091 3250 3366 3167 2056 2010 1795 1714 1826 1917 1910 1852 1779 1706 1738 1766 1713 1405 931 628 575 493 422 652 961 1154 1133 1118 1249 1180 832 674 534 306 288 382 237 142 88 100 80 140 208 164 247 334 105 21 2 27 20 28 26 50 147 290 399 955 1175 1052 687 563 690
2504 3095 3262 3368 2819 2424 2225 2160 2149 2072 1969 1942 1938 1872 1761 1701 1530 1100 847 606 458 418 426 793 965 1188 1241 1149 1185 1104 889 702 521 394 281 266 161 62 62 106 202 240 196 217 248 312 274 62 177 276 43 6 203 304 268 318 680 1346 886 715 686 799 938
1192 2736 2866 3038 3085 2727 2449 2304 2235 2216 2231 2237 2158 2081 1953 1543 1172 689 639 554 496 397 371 663 921 1011 929 360 434 814 740 212 235 210 273 188 112 143 209 208 264 233 232 393 408 170 144 388 16 0 12 160 89 28 80 301 628 882 799 686 580 680 835
35 814 1956 2060 2279 3145 2764 2457 2265 2236 2226 2316 2361 2311 2224 1854 1192 1028 894 759 617 512 471 445 458 420 327 277 360 351 272 158 170 214 206 178 186 189 207 302 319 312 320 398 496 525 465 282 210 223 220 214 131 74 116 254 475 336 160 328 76 198 488
1145 1411 1780 2316 2719 3032 3045 2714 2448 2364 2251 2141 2128 2170 2119 2012 1684 1254 1140 966 778 652 633 570 372 280 278 289 394 432 279 285 300 264 292 262 230 237 368 360 398 468 475 500 480 504 471 357 335 378 209 228 264 370 296 218 190 60 0 0 1 2 130
1037 908 1827 2509 2886 2944 2818 2701 2576 2532 2392 2182 2032 1880 1896 1857 1777 1526 1173 1075 848 760 590 472 382 387 314 405 632 533 446 434 485 470 387 366 350 394 410 536 552 520 530 508 521 508 436 417 248 143 326 380 277 226 205 228 75 0 0 0 0 0 8
374 836 838 1028 2670 2657 2526 2559 2524 2423 2386 2270 2114 1940 1763 1777 1820 1650 1377 1125 1028 861 855 637 507 803 734 793 806 735 666 683 608 640 619 606 538 466 516 605 622 669 652 588 567 522 389 226 275 434 555 442 162 54 98 448 1 0 0 0 0 0 0
440 314 436 680 621 2396 2561 2298 2292 2373 2410 2326 2106 1940 1811 1833 1812 1690 1461 1320 1189 1040 861 853 844 1223 1176 1025 948 813 783 748 722 672 708 681 647 637 611 634 680 710 721 708 623 528 439 424 438 336 274 210 223 207 371 550 0 0 0 0 0 0 0
28 106 189 578 1004 2038 2388 2430 2388 2746 2705 2393 2039 1814 1870 2005 2030 1838 1626 1592 1324 1127 1003 1025 994 1429 1406 1307 1156 1030 879 774 723 692 676 678 664 644 656 688 731 756 799 840 745 646 592 450 316 282 224 199 205 358 68 185 122 0 0 0 0 0 4
226 186 1065 2306 4066 4283 3781 3372 2926 3238 2965 2583 2192 2196 2292 2440 2387 2062 2075 1876 1750 1426 1124 928 966 1443 1568 1507 1410 1278 1117 930 780 712 688 678 657 662 664 715 796 848 955 905 871 757 676 571 374 329 335 343 282 340 98 120 476 0 0 0 0 0 196
180 1736 2333 3166 3854 4113 4097 3960 3566 3537 3158 2919 2879 2842 2945 2944 2508 2477 2238 1982 1838 1685 1381 914 1210 1396 1637 1635 1607 1544 1340 1105 919 818 754 694 670 658 709 786 866 952 1075 1007 882 800 774 608 364 239 312 318 151 566 181 33 397 0 0 10 0 0 30
2331 2384 2800 3091 3598 3800 3855 3919 3894 3712 3408 3352 3266 3023 3047 3034 2644 2448 2186 1966 1820 1637 1061 1174 1468 1545 1638 1686 1706 1696 1580 1347 1114 880 775 736 690 681 738 856 964 1055 1109 1076 911 794 654 529 400 242 159 55 83 540 269 230 292 593 542 50 0 0 4
2347 2643 2693 3010 3442 3611 3662 3658 3607 3748 3696 3583 3370 3108 2847 2752 2440 2188 1930 1775 1529 1033 944 1074 1284 1574 1743 1832 1853 1797 1704 1559 1384 1165 835 647 680 778 831 859 958 920 947 975 783 638 581 496 361 298 236 220 197 245 416 651 614 583 180 0 0 0 0
2460 2551 2572 2988 3230 3373 3540 3624 3421 3339 3336 3340 3182 3044 2862 2606 2408 1859 1584 1375 994 988 1043 1104 1167 1395 1663 1844 1855 1822 1742 1627 1480 1264 960 719 671 819 944 783 600 490 366 430 504 492 566 536 452 321 318 268 148 370 326 462 746 349 0 0 0 0 387
2320 2384 2925 3002 3117 3295 3348 3352 3156 3090 3159 3043 2994 2857 2686 2352 1862 1600 1802 1578 1526 2155 2878 2368 1722 1689 2080 2122 2062 1764 1596 1477 1382 1242 1080 869 655 648 524 505 484 300 310 332 366 128 371 845 627 552 456 392 341 218 295 578 966 438 402 47 358 397 373
1773 1854 3142 3112 3182 3237 3055 3165 2900 2310 2204 2468 2527 2470 2268 2243 2409 2570 2602 2855 2834 2814 2625 2675 2913 2988 2720 2356 2197 2020 1790 1653 1370 1192 1001 854 730 657 480 364 524 451 338 243 196 163 249 171 468 512 526 494 429 399 365 552 1034 666 480 586 450 304 0
2362 2570 3138 3117 3084 3073 3024 2972 2418 1528 1289 1553 2024 2308 2624 2681 2994 3162 2968 2881 2726 2442 2341 2270 2546 2621 2800 2852 2847 2746 2334 1931 1588 1412 1186 1029 1009 937 744 638 648 478 420 413 402 87 0 0 157 374 663 596 460 458 500 1257 1040 770 586 385 0 0 0
2194 2397 3040 3095 3100 3072 2935 2475 1743 1133 818 1212 1380 2834 3204 3124 2966 2995 2990 2858 2442 2152 2198 2288 2161 2072 2350 2560 2455 2294 2010 1854 1765 1674 1619 1584 1358 1100 890 882 669 547 542 538 539 504 340 208 0 298 511 618 540 504 653 1105 1127 703 507 374 275 316 0
1805 2100 2688 2549 2253 1854 1667 1478 950 954 778 1026 980 1768 2565 2961 2949 2636 2100 1937 2039 2101 2365 2411 2406 2559 2156 2380 2411 2250 2070 2082 2029 1987 1984 1983 1836 1365 1001 786 736 636 540 576 573 244 20 29 50 223 494 534 502 496 503 409 675 704 564 366 387 168 0
1570 1619 1542 1289 1140 1086 1388 999 758 880 957 1155 1483 1720 1913 1977 2052 2205 2159 1903 1036 1351 2235 2053 2493 2360 2282 2404 2563 2344 2072 1932 2001 1664 1627 1480 1192 1036 924 780 628 550 601 614 575 510 450 318 274 370 451 404 576 551 512 385 368 338 318 376 326 0 0
1455 1546 1305 996 877 977 1071 866 1002 956 797 1317 1230 1183 1054 702 344 9 144 603 1020 886 1220 1730 1730 1839 2109 2171 2159 2305 1915 1601 1414 1303 1182 1039 837 691 601 584 592 603 538 471 528 477 418 354 348 413 511 425 466 510 396 284 114 142 0 10 298 223 0
959 1093 1105 956 990 857 753 859 850 606 591 740 732 427 348 300 90 0 54 544 1018 1209 1211 1332 1304 1237 1128 1138 1556 1700 1954 1827 1535 1208 869 678 559 518 566 639 639 555 421 567 626 539 456 397 404 314 360 445 435 377 401 417 0 0 334 367 340 0 0
1018 932 836 750 852 833 765 686 709 708 394 41 385 50 85 299 480 267 398 644 776 982 904 1054 1162 1017 994 812 704 1227 1537 1151 951 749 612 601 600 596 548 539 489 413 357 328 262 320 308 314 328 355 390 437 481 380 331 67 0 29 298 196 53 30 37
1158 1097 1062 950 806 907 851 800 829 802 592 168 64 106 276 311 480 508 484 842 778 742 632 774 841 917 820 908 1010 2168 2172 1642 1464 1326 917 816 695 716 703 562 450 267 193 0 0 172 0 339 389 412 418 482 405 182 0 0 42 137 100 68 44 30 20
Wind_Speed
nan 28 29 28 27 28 29 27 27 27 28 27 27 29 29 28 29 30 31 31 31 31 31 32 32 30 29 28 27 27 27 28 27 27 nan 28 30 29 29 31 32 31 31 31 30 31 32 32 33 33 35 35 35 34 35 36 38 39 39 39 40 41 43
29 31 32 28 27 28 29 29 28 28 27 28 27 28 27 29 30 30 31 30 30 32 32 32 31 29 29 27 27 28 29 28 27 28 29 29 29 30 31 32 33 32 nan nan 31 32 33 33 34 35 35 36 35 35 35 35 37 39 40 42 42 41 43
nan 33 33 31 30 28 30 29 30 29 28 28 29 28 27 29 31 32 31 29 28 29 30 30 31 31 29 29 29 29 29 28 28 29 30 nan nan nan 31 33 33 32 30 30 30 31 33 34 36 36 36 36 37 36 36 37 37 38 41 43 43 43 43
36 nan 35 34 32 30 31 30 30 29 29 30 30 29 28 29 29 30 30 29 29 30 31 29 31 33 32 31 30 30 30 28 29 29 29 29 30 31 33 32 33 nan nan 29 31 32 32 34 35 35 35 37 37 38 37 37 38 39 41 43 44 45 46
31 31 34 34 33 31 29 27 27 29 31 30 29 29 28 28 29 27 26 26 28 31 31 32 32 33 33 32 30 30 30 29 28 28 28 29 31 32 nan nan nan 30 29 30 31 32 34 35 35 35 35 38 38 38 38 39 40 41 41 43 44 45 45
34 34 34 33 33 33 31 28 28 29 31 30 29 28 28 29 27 27 27 27 27 28 28 30 33 34 34 32 31 30 30 30 30 28 29 30 32 nan nan nan nan 29 29 nan 29 33 35 34 34 35 37 39 40 40 40 40 40 41 42 43 45 46 46
38 37 35 33 33 32 30 27 26 27 29 28 27 27 28 28 28 27 27 27 28 31 31 31 33 35 34 33 31 31 30 32 31 30 31 32 33 33 33 32 31 nan nan 30 30 32 34 35 35 37 40 41 42 42 41 41 40 41 42 43 44 45 46
38 36 34 34 32 31 28 25 25 26 27 27 28 28 29 29 29 29 28 29 30 31 32 33 33 35 35 33 32 31 31 32 32 33 33 34 34 35 35 33 32 31 30 nan nan 32 33 34 35 38 39 40 42 42 42 41 42 42 43 43 44 44 45
38 38 35 32 29 29 29 27 26 28 30 30 30 30 30 30 31 32 31 31 31 32 33 32 33 35 35 34 33 32 31 31 31 33 35 36 36 37 35 33 32 31 31 31 30 31 33 33 36 37 39 40 42 43 43 43 43 43 44 44 44 44 44
38 36 34 31 29 27 26 25 26 27 29 30 30 30 32 31 33 34 33 33 33 33 34 33 32 34 36 35 34 32 31 31 31 34 36 37 38 37 35 33 31 30 30 30 30 30 32 35 37 38 41 42 42 43 43 43 43 44 44 44 45 45 45
36 35 35 34 30 28 28 28 29 30 31 32 31 31 32 33 35 35 35 34 34 33 34 33 33 34 35 36 36 33 33 31 31 34 35 36 38 37 nan nan nan nan nan nan nan nan nan nan 38 40 41 41 42 43 44 44 45 45 44 45 46 46 46
32 34 36 34 31 29 31 31 31 32 33 33 32 33 33 34 35 36 35 35 33 33 34 33 34 34 34 36 35 34 35 33 32 35 36 37 nan nan nan nan nan nan nan nan nan nan nan nan nan nan 42 43 44 45 45 44 44 45 44 45 46 47 46
31 30 32 34 35 33 30 28 31 34 35 34 33 32 32 34 34 34 35 36 34 33 34 33 35 34 36 36 35 34 35 34 36 37 37 38 38 36 nan nan nan nan nan nan nan nan nan nan nan 42 45 46 nan 45 44 43 43 43 44 45 46 45 44
30 26 26 30 33 34 32 30 32 34 34 34 33 32 31 32 33 33 34 35 35 34 34 33 36 36 37 36 32 32 33 33 36 38 38 38 37 37 37 nan 37 nan nan 36 nan nan nan nan nan nan nan nan nan nan 42 41 nan 41 44 46 45 43 41
28 26 27 31 32 34 35 33 32 34 35 35 35 34 32 32 33 32 32 33 33 34 36 36 37 36 36 33 30 29 32 33 36 37 38 37 38 39 nan 38 nan 36 37 37 37 39 40 nan nan nan nan nan nan nan 42 41 41 44 46 45 43 42 41
31 32 32 33 34 35 36 38 37 35 36 36 36 35 35 35 35 34 34 35 36 37 38 39 36 36 36 32 29 30 33 35 35 37 38 38 39 nan nan 38 37 38 38 38 39 41 42 nan 43 45 nan nan 44 44 43 41 42 44 47 45 43 42 42
33 35 35 35 36 36 38 40 40 37 35 35 36 36 37 37 36 37 38 38 38 40 39 39 36 35 36 33 30 32 35 36 36 38 39 39 39 39 39 39 39 39 39 40 41 42 43 45 nan nan nan 46 nan nan nan 41 41 43 44 44 44 42 41
nan 35 35 35 36 38 39 41 42 40 35 33 34 35 36 37 37 38 38 37 38 38 37 36 35 35 36 34 30 32 36 36 37 38 38 39 40 40 40 41 41 40 40 41 42 43 45 46 46 46 47 46 45 nan 40 40 40 41 42 42 nan 41 40
34 35 36 37 40 41 41 40 41 42 39 35 34 33 34 36 36 36 36 37 37 37 35 36 34 35 35 33 31 34 36 37 38 39 39 40 41 41 42 42 42 42 42 43 44 44 45 46 47 47 46 46 45 42 40 40 38 nan nan nan nan nan 40
35 35 38 40 41 43 38 35 36 38 39 38 36 36 35 34 35 35 37 39 40 39 34 34 31 32 34 33 33 36 37 38 40 40 40 42 42 43 44 44 44 44 45 46 46 45 44 46 47 47 47 47 46 42 40 40 nan nan nan nan nan nan nan
35 36 35 37 41 40 38 36 36 37 37 37 39 37 36 34 36 39 39 40 39 36 33 29 30 30 33 34 35 36 37 39 41 41 42 43 44 44 45 46 46 46 47 49 49 47 45 45 46 48 48 48 46 nan nan 41 nan nan nan nan nan nan nan
35 36 36 35 38 41 41 38 37 37 38 39 40 38 38 38 40 41 38 37 40 37 33 30 29 32 34 35 36 37 38 40 41 41 42 44 44 46 47 48 49 49 50 50 50 48 46 44 47 48 48 46 45 42 40 40 nan nan nan nan nan nan nan
nan 37 36 36 39 38 39 38 37 38 41 41 40 40 39 40 41 40 38 37 37 33 31 31 32 34 36 37 37 37 39 40 41 42 43 44 45 45 47 50 51 51 52 52 51 49 47 45 46 47 46 44 43 44 nan 37 40 nan nan nan nan nan nan
39 39 40 40 40 38 37 38 39 41 42 43 42 42 42 43 42 39 37 36 36 35 33 32 33 35 36 36 36 37 39 40 41 42 43 44 44 45 48 51 52 53 54 54 53 51 48 45 43 44 44 44 44 46 nan 38 40 nan nan nan nan nan 34
39 42 41 39 39 37 37 39 42 42 42 44 45 44 43 44 43 39 36 36 36 35 34 33 34 36 35 35 36 37 39 39 40 41 42 42 43 46 50 52 53 54 55 54 54 51 48 44 42 41 42 43 42 44 42 nan 37 nan nan nan nan nan nan
40 39 38 37 36 36 37 39 43 43 44 45 45 46 44 43 40 38 37 36 36 35 34 34 35 35 34 34 36 37 38 39 40 40 40 40 43 49 52 52 53 56 57 55 53 50 48 46 43 42 41 nan nan 41 40 40 38 39 43 nan nan nan nan
39 37 37 38 38 38 37 38 42 46 46 46 48 46 43 41 39 36 36 37 36 35 34 34 35 34 34 35 37 37 38 38 38 36 35 37 44 48 49 48 49 52 54 52 51 51 51 47 41 41 40 38 40 41 40 41 40 41 45 nan nan nan nan
43 38 36 38 41 40 39 40 44 48 51 50 50 46 41 39 38 37 36 37 36 34 34 35 34 34 34 35 36 37 37 37 36 33 31 37 44 45 43 41 43 44 43 42 45 55 57 48 41 39 38 36 33 36 39 39 39 41 nan nan nan nan 41
43 42 40 38 38 39 42 44 47 51 54 52 48 44 40 38 38 37 38 37 35 36 37 38 36 36 36 36 37 37 37 36 34 35 41 45 53 54 54 56 54 54 52 49 47 46 47 47 44 39 36 34 36 38 38 38 39 42 42 nan 44 44 41
41 42 42 39 40 41 44 48 47 40 36 45 44 39 39 40 39 39 40 39 38 39 39 40 40 39 38 37 37 37 36 37 41 44 44 47 50 53 53 53 55 54 53 50 49 46 36 38 47 45 39 39 41 42 39 39 41 41 45 44 43 43 nan
41 43 43 43 44 43 44 46 51 47 31 31 41 40 39 39 39 40 39 35 38 39 38 37 35 34 34 37 39 40 41 45 45 45 47 50 52 53 51 52 55 57 58 57 53 nan nan nan 36 41 45 48 47 42 41 42 42 42 43 45 nan nan nan
42 43 44 45 48 48 45 46 48 44 33 24 31 37 37 36 38 40 38 38 38 37 36 35 34 34 36 38 41 45 46 48 48 49 51 53 53 53 52 55 55 56 56 57 56 55 51 45 nan 42 49 53 48 43 42 42 42 41 40 40 41 39 nan
40 41 44 47 48 50 47 47 49 45 35 25 32 37 37 37 37 38 38 38 36 35 34 34 34 36 40 41 44 45 47 49 49 51 52 53 52 51 52 54 56 56 55 56 55 53 nan nan nan 51 53 53 47 43 42 42 42 42 39 36 35 35 nan
44 44 43 46 48 50 49 50 52 49 42 29 31 39 37 36 36 36 37 38 39 40 40 36 34 38 40 43 46 47 49 51 53 54 54 54 54 54 53 53 53 55 56 57 57 55 53 54 53 55 56 53 51 47 44 41 41 39 36 33 32 nan nan
43 43 43 45 46 50 52 50 52 55 51 34 31 45 45 45 45 nan 47 42 43 47 47 42 39 41 44 47 48 49 50 53 54 54 55 55 55 54 52 50 50 53 56 53 53 53 55 56 56 56 55 53 51 49 45 42 41 42 nan nan 34 34 nan
42 45 45 45 46 51 56 53 51 50 53 50 37 46 54 55 nan nan nan 49 46 43 45 43 44 46 47 49 50 49 52 55 55 54 56 58 58 57 56 55 54 49 52 55 56 56 53 54 54 56 56 57 47 43 44 41 nan nan 43 36 34 nan nan
45 46 48 48 49 49 53 53 53 51 49 nan 48 nan nan 56 57 55 49 43 43 45 48 49 50 51 50 50 50 55 57 56 55 54 57 59 59 58 57 56 54 54 55 56 56 54 53 53 53 55 57 56 50 43 47 nan nan nan 40 36 nan nan nan
44 47 48 47 50 50 49 50 51 52 49 48 nan 49 51 55 49 45 44 44 47 51 52 52 52 52 50 51 54 56 56 57 55 57 57 56 57 57 56 56 56 54 51 nan nan 55 nan 55 56 58 59 58 54 47 nan nan nan 43 38 nan nan nan nan
Wind_Direction
nan 315 316 316 316 314 309 306 304 303 301 303 301 303 304 304 303 301 301 301 305 304 308 308 308 304 304 307 306 306 305 306 308 311 nan 315 316 317 317 319 319 317 315 314 315 317 317 317 317 319 318 317 317 317 317 316 317 317 318 319 316 316 317
318 312 310 311 313 312 310 307 307 306 303 305 305 309 309 310 308 307 307 305 309 310 312 311 309 306 305 306 303 303 304 307 309 308 309 311 313 316 318 317 316 314 nan nan 314 316 316 318 319 317 316 317 318 318 317 317 317 317 318 317 318 319 318
nan 314 309 311 315 311 310 307 312 310 307 307 309 313 316 316 316 314 309 307 308 308 310 312 311 308 305 304 302 304 305 307 308 309 310 nan nan nan 316 317 316 313 312 312 311 313 316 319 318 317 318 319 319 319 319 320 320 321 321 320 320 320 319
317 nan 312 314 316 314 314 312 313 309 308 311 314 317 315 316 315 313 311 310 309 310 312 313 310 308 306 304 305 306 307 308 309 311 312 313 313 312 312 314 315 nan nan 312 312 313 315 317 318 318 319 318 320 320 321 321 322 322 322 321 319 320 320
311 304 313 314 312 309 310 308 309 307 308 310 313 313 311 309 309 308 306 308 308 311 312 314 311 308 306 305 305 307 309 309 309 308 309 310 310 309 nan nan nan 313 314 312 311 311 312 313 315 317 319 319 320 320 321 321 321 320 319 318 318 318 319
303 302 310 308 309 310 311 311 311 309 308 311 312 310 306 307 305 308 305 305 304 303 304 305 309 309 309 306 305 307 307 310 311 308 310 313 314 nan nan nan nan 318 316 nan 314 313 313 314 318 320 322 322 322 321 320 319 320 320 320 319 320 320 322
294 299 305 307 308 311 315 315 312 310 309 308 306 303 304 307 308 303 298 302 306 308 309 309 309 309 308 305 306 309 312 314 312 310 311 315 317 319 320 319 318 nan nan 314 314 315 316 319 322 323 325 324 323 322 322 322 321 321 321 321 322 322 323
295 298 302 308 310 311 317 314 310 306 302 302 304 306 307 306 304 305 303 304 306 308 310 310 307 308 307 306 307 310 314 315 314 314 316 319 322 322 322 320 320 320 316 nan nan 318 322 324 325 325 325 324 323 323 324 324 323 322 319 320 320 321 322
302 305 306 310 309 311 315 315 312 309 309 310 311 309 308 306 306 306 307 307 308 309 310 309 308 307 307 307 308 312 314 314 315 316 319 321 321 322 321 322 322 320 318 318 319 319 322 325 326 326 325 325 325 325 325 325 323 322 322 322 322 322 321
302 304 308 308 307 308 313 315 309 303 305 305 305 307 308 306 304 304 307 309 308 311 310 309 309 309 307 305 307 313 313 314 316 318 319 320 320 320 322 322 324 317 317 319 317 318 317 320 323 324 324 327 327 326 325 324 323 322 322 323 322 320 321
297 306 304 309 312 311 313 315 314 317 316 311 306 306 305 305 305 304 305 307 309 308 311 309 310 309 307 306 309 312 311 314 317 319 319 320 320 323 nan nan nan nan nan nan nan nan nan nan 322 324 324 326 326 324 323 324 324 324 324 323 321 321 321
294 296 303 309 312 312 319 325 323 320 318 312 308 306 303 303 303 302 303 308 307 307 312 310 311 311 307 307 310 309 309 315 318 319 322 322 nan nan nan nan nan nan nan nan nan nan nan nan nan nan 322 319 317 319 323 325 325 325 325 323 321 321 322
296 296 298 309 310 317 321 318 321 323 322 317 311 306 303 303 304 304 299 307 309 309 312 309 311 308 305 309 313 313 315 321 320 319 322 322 322 320 nan nan nan nan nan nan nan nan nan nan nan 320 318 317 nan 319 322 323 324 325 324 322 320 322 323
294 295 291 303 305 310 319 324 323 322 321 316 313 308 304 302 304 307 303 305 309 311 312 307 308 306 309 312 313 314 322 324 318 318 319 319 318 317 315 nan 314 nan nan 314 nan nan nan nan nan nan nan nan nan nan 322 323 nan 324 321 320 323 322 323
287 292 291 298 310 312 315 319 321 322 320 317 312 309 306 302 302 304 303 303 305 308 309 304 308 311 310 309 311 316 320 319 317 316 318 318 315 312 nan 314 nan 317 317 318 320 320 321 nan nan nan nan nan nan nan 322 324 324 321 321 323 322 322 325
293 293 295 299 310 314 317 319 320 320 317 314 315 310 306 305 306 306 305 302 300 298 300 305 309 309 308 305 311 314 315 315 316 317 318 316 315 nan nan 317 319 320 321 322 322 321 321 nan 321 320 nan nan 320 321 321 322 321 323 328 327 323 323 325
295 297 301 304 307 314 317 318 317 315 315 314 313 310 306 304 303 303 302 301 298 298 300 301 304 304 306 307 312 312 313 314 316 316 317 316 315 315 316 318 320 321 322 322 321 322 323 322 nan nan nan 319 nan nan nan 321 322 328 329 330 330 324 323
nan 293 298 303 303 305 311 315 314 316 318 316 311 308 302 300 301 301 301 298 294 293 294 298 301 303 307 312 312 312 314 316 315 315 315 314 316 316 317 317 319 320 321 321 322 323 321 320 320 320 319 318 319 nan 322 321 325 330 329 329 nan 326 323
273 279 292 296 298 305 311 315 314 316 318 314 309 306 304 301 300 301 296 292 288 287 288 291 300 307 309 312 316 316 316 314 315 315 315 316 316 316 316 317 318 320 321 322 322 320 319 319 318 318 318 318 319 320 320 320 321 nan nan nan nan nan 325
272 278 283 295 299 304 310 310 306 308 313 313 309 305 301 304 300 291 287 287 290 296 304 306 305 305 309 314 316 316 316 315 315 316 317 316 316 316 317 318 321 321 320 319 318 319 319 317 317 317 317 317 318 319 321 320 nan nan nan nan nan nan nan
281 282 285 291 300 302 307 311 309 305 302 300 300 298 296 293 288 288 289 295 302 304 300 302 304 307 310 314 314 314 315 315 316 317 317 317 317 317 319 320 320 320 319 318 317 317 318 317 315 315 314 315 317 nan nan 318 nan nan nan nan nan nan nan
288 290 291 294 296 303 307 309 307 306 302 297 298 299 298 296 294 294 298 302 302 299 300 306 308 310 311 313 314 316 316 315 316 316 315 316 317 319 320 320 321 320 317 315 315 315 316 315 313 312 313 315 317 319 318 316 nan nan nan nan nan nan nan
nan 288 293 294 294 297 307 309 306 300 297 298 300 299 297 295 294 295 298 297 292 293 302 308 309 311 312 314 316 316 314 314 315 315 316 316 318 321 321 320 319 317 315 314 314 315 315 314 312 310 311 314 315 315 nan 312 307 nan nan nan nan nan nan
275 280 287 286 285 287 291 296 298 298 300 299 298 297 294 295 294 297 299 297 299 304 307 309 309 308 311 314 316 313 311 312 314 316 317 317 320 322 319 317 315 315 314 314 312 314 315 314 312 309 309 312 313 315 nan 313 307 nan nan nan nan nan 312
277 283 285 286 289 290 291 293 299 299 298 298 297 295 295 297 301 301 302 300 302 304 304 305 304 305 311 313 310 308 309 311 313 315 317 320 323 320 316 316 316 314 311 310 309 310 311 311 309 305 306 309 311 316 318 nan 308 nan nan nan nan nan nan
279 283 284 286 288 290 291 291 294 299 301 302 298 295 295 296 298 299 299 300 299 300 301 300 303 307 307 305 304 306 307 309 313 315 318 322 319 315 315 313 313 312 310 308 309 312 314 311 304 301 305 nan nan 308 312 308 307 307 309 nan nan nan nan
286 285 286 286 289 288 289 292 295 301 302 299 295 292 292 292 295 297 297 295 295 297 299 302 302 301 302 302 303 305 306 306 309 314 316 318 317 315 316 315 315 314 312 312 316 320 319 313 305 301 302 303 304 307 308 306 304 304 306 nan nan nan nan
283 282 281 286 291 292 293 293 293 293 295 293 291 287 287 290 292 292 291 291 294 299 297 297 298 299 300 302 303 304 303 305 303 308 304 296 288 292 299 299 300 304 305 306 314 320 314 306 302 307 309 309 310 310 311 311 309 302 nan nan nan nan 308
288 288 287 288 289 291 293 293 296 296 294 288 283 279 279 285 287 286 289 292 292 289 289 295 300 300 300 301 300 300 303 304 301 287 285 295 302 306 309 308 307 309 311 313 318 315 307 301 301 306 312 317 317 314 312 311 307 305 307 nan 314 310 307
286 284 284 287 288 287 284 284 280 274 277 273 267 266 270 275 276 277 279 281 285 286 286 287 291 296 298 299 298 298 299 296 288 289 293 299 302 302 303 304 304 308 309 307 306 307 305 298 299 301 305 315 317 314 313 313 307 308 311 310 310 307 nan
281 282 284 283 275 275 278 284 295 301 281 250 257 258 261 265 271 274 277 282 281 283 285 286 289 291 291 292 296 298 296 292 291 291 291 294 297 300 303 305 306 307 306 305 307 nan nan nan 296 300 307 312 316 315 313 308 303 303 306 304 nan nan nan
277 278 279 281 281 282 288 287 289 295 289 243 237 251 253 260 273 278 282 283 283 284 287 289 290 293 292 293 292 294 294 292 291 292 296 299 302 303 305 304 304 303 303 304 305 306 306 302 nan 295 300 308 312 312 308 303 300 302 299 297 296 299 nan
280 281 284 287 289 289 290 291 288 291 287 260 239 242 257 270 279 287 289 291 289 285 284 287 291 292 292 292 292 291 290 292 294 296 298 301 302 301 299 301 300 301 301 301 303 304 nan nan nan 299 301 303 309 310 305 301 298 296 293 292 292 293 nan
284 284 284 288 291 290 290 291 289 291 292 269 245 255 271 282 288 296 300 294 287 285 285 285 291 293 292 291 290 290 291 291 295 296 299 299 299 298 299 300 302 301 302 304 306 306 306 306 305 304 303 304 305 301 299 298 295 294 293 293 295 nan nan
285 286 286 287 291 291 291 292 292 294 297 287 250 258 271 276 281 nan 297 294 290 287 284 284 288 290 290 291 291 292 294 297 298 299 298 297 295 293 293 295 296 298 298 298 300 304 305 304 303 302 298 298 299 302 301 301 302 299 nan nan 296 294 nan
283 284 283 284 287 288 288 290 291 293 298 297 287 272 275 275 nan nan nan 292 289 291 289 287 286 287 288 290 293 295 297 298 300 301 300 300 299 298 296 292 293 296 300 301 298 298 300 301 301 298 298 298 299 301 303 301 nan nan 295 293 287 nan nan
286 286 287 287 287 287 290 295 298 296 297 nan 292 nan nan 278 275 280 287 288 287 287 287 287 288 291 291 293 294 294 297 298 299 298 298 300 301 301 302 302 296 291 291 294 296 295 293 293 297 301 300 299 296 287 282 nan nan nan 290 290 nan nan nan
288 290 292 292 291 292 292 294 296 297 296 292 nan 288 282 277 281 289 291 286 286 288 288 288 289 291 294 296 295 295 295 298 298 298 300 301 302 304 306 305 303 299 294 nan nan 295 nan 290 287 289 294 297 298 297 nan nan nan 298 300 nan nan nan nan